Regional Weather Roundup
Issued by NWS Charleston, SC

Current Version | Previous Version | Graphics & Text | Print | Product List | Glossary On
Versions: 1 2 3 4 5 6 7 8 9 10 11 12 13 14 15 16 17 18 19 20 21 22 23 24 25 26 27 28 29 30 31 32 33 34 35 36 37 38 39 40 41 42 43 44 45 46 47 48 49 50
932
ASUS42 KCHS 110527
RWRCHS

REGIONAL WEATHER ROUNDUP
NATIONAL WEATHER SERVICE CHARLESTON SC
1200 AM EST SUN DEC 11 2016

NOTE: "FAIR" INDICATES FEW OR NO CLOUDS BELOW 12,000 FEET WITH NO
SIGNIFICANT WEATHER AND/OR OBSTRUCTIONS TO VISIBILITY.

NOT ALL STATIONS ARE QUALITY CONTROLLED. USE DATA WITH CAUTION...
ESPECIALLY DEWPOINT OBSERVATIONS.

SCZ027-030-031-034>040-042>050-110600-
...SOUTHEAST SOUTH CAROLINA...

CITY           SKY/WX    TMP DP  RH WIND       PRES   REMARKS
N CHARLESTON   CLEAR     35  24  64 NE7       30.50S WCI  29
WATERFRONT PRK   N/A     42  29  59 NE10      30.49S
MOUNT PLEASANT FAIR      34  27  75 CALM      30.50F
JOHNS ISLAND   FAIR      39  27  60 N6        30.49F WCI  35
PINOPOLIS        N/A     41  28  60 E10       30.42F
MONCKS CORNER  FAIR      32  21  64 CALM      30.50S
SUMMERVILLE    FAIR      30  30 100 CALM      30.51F
BEAUFORT MCAS  CLEAR     41  27  57 NE9       30.48F
BEAUFORT ARPT  FAIR      41  32  70 NE10      30.47F
HILTON HEAD IS CLEAR     43  32  65 N10       30.47F
WALTERBORO     CLEAR     34  28  80 NE5       30.50F WCI  30
ALLENDALE      FAIR      34  25  69 CALM      30.48S

...SOUTHERN MIDLANDS AND PEE DEE...

CITY           SKY/WX    TMP DP  RH WIND       PRES   REMARKS
GEORGETOWN     FAIR      32  27  80 N5        30.51  WCI  27
KINGSTREE      FAIR      27  23  86 CALM      30.52R
ORANGEBURG     CLEAR     30  26  85 NE6       30.49F WCI  24
BARNWELL       NOT AVBL
AIKEN          FAIR      28  23  80 CALM      30.51F
MANNING        FAIR      28  27  93 CALM      30.50F
COLUMBIA       CLEAR     29  24  82 CALM      30.50S
SUMTER         CLEAR     28  21  78 CALM      30.48F
FLORENCE       CLEAR     29  24  82 CALM      30.52S
MYRTLE BEACH   CLEAR     34  21  60 N7        30.54S WCI  28
N MYRTLE BEACH CLEAR     28  26  92 NE5       30.52F WCI  23

$$

GAZ063-065-086>088-099>101-113>116-118-119-134>141-150-110600-
...SOUTHEAST GEORGIA...

CITY           SKY/WX    TMP DP  RH WIND       PRES   REMARKS
SAVANNAH ARPT  CLEAR     39  27  62 NE8       30.46F WCI  33
HUNTER AAF     CLEAR     41  32  69 NE6       30.43F
FORT STEWART   CLEAR     37  28  70 NE3       30.42F HAZE
STATESBORO     CLEAR     37  28  70 CALM      30.48R
SYLVANIA       CLEAR    N/A N/A N/A E5        30.48S
CLAXTON        FAIR      35  31  85 N5        30.46S WCI  31

...CSRA...CENTRAL AND FAR SOUTHEAST GEORGIA...

CITY           SKY/WX    TMP DP  RH WIND       PRES   REMARKS
THOMSON        CLEAR     29  28  98 CALM      30.52S
AUGUSTA-BUSH   CLEAR     29  25  85 CALM      30.49R
AUGUSTA-DANIEL CLEAR     37  22  54 NE6       30.48S WCI  32
SWAINSBORO     FAIR      36  27  69 E5        30.47S WCI  32
VIDALIA        CLEAR     37  30  75 NE7       30.45F WCI  32
EASTMAN        FAIR      37  16  41 NE3       30.47S
HAZLEHURST     FAIR      40  28  63 E6        30.43S WCI  36
ALMA           CLEAR     39  30  70 NE3       30.42F
WAYCROSS       CLEAR     43  37  79 NE6       30.41S
JESUP          FAIR      41  34  75 NE6       30.42F
BAXLEY         FAIR      39  32  75 NE6       30.42F WCI  35
BRUNSWICK      CLEAR     45  41  87 N5        30.41F
SAINT SIMONS   MOCLDY    46  40  79 N8        30.40F

$$

SCZ027-028-034-036>038-045-046-048>050-GAZ119-141-110600-
...LAKE AND SUPPLEMENTAL COASTAL OBSERVATIONS...

STATION/POSITION TIME  TEMP    WIND        PRES    WAVE   SWELL
                       AIR SEA DIR/SP/G            HT/PER HT/PER/DIR
                 (UTC) (F)     (DEG/KT/KT) (MB)    (FT/S) (FT/S/D)
WINYAH BAY       0445   37      10/  5     1033.0S
LAKE MURRAY      0450   37      CALM  /  1 1031.8F
ACE BASIN NERRS  0445   36        CALM     1032.0S
FORT PULASKI     0500   47 59   50/ 12/ 16 1031.2
SAPELO ISLAND    0500   46      20/  8     1030.0

$$

ANZ835-935-AMZ111-154-330-350-352-354-370-450-454-472-110600-
...C-MAN AND BUOY OBSERVATIONS...

STATION/POSITION TIME  TEMP    WIND        PRES    WAVE   SWELL
                       AIR SEA DIR/SP/G            HT/PER HT/PER/DIR
                 (UTC) (F)     (DEG/KT/KT) (MB)    (FT/S) (FT/S/D)
BUOY 41004       0450   53 75   50/ 12/ 16 1031.7F   2/ 5   2/ 80/ 6
BUOY 41008       0450   58 62   60/ 17/ 21 1029.4F   4/ 5   2/ 90/ 8
FOLLY BEACH CMAN 0500   44      30/ 13/ 15 1032.8F
CAPERS NEARSHORE 0408   46 58   30/ 16/ 19 1032.8R
FRIPP NEARSHORE  0508   51 58   60/ 17/ 21 1031.5F


STATION/POSITION TIME  TEMP    WIND        PRES    WAVE   SWELL
                       AIR SEA DIR/SP/G            HT/PER HT/PER/DIR
                 (UTC) (F)     (DEG/KT/KT) (MB)    (FT/S) (FT/S/D)
5E ST. MARYS GA  0500      63                N/A     5/ 5
FRYING PAN BUOY  0510   49 72   30/ 12/ 17 1032.5
BUOY 41025       0450   44 77  360/ 12/ 17 1033.5R   4/ 8   3/ 50/ 8
CAPE LOOKOUT NC  0500   39     360/  9/ 11 1033.0F
BUOY 41002       0450   60 73   50/  6/ 12 1030.4F   4/ 8   3/ 40/ 8
BUOY 41010       NOT AVBL
ST AUGUSTINE FL  0500   61 64  280/  2/  4 1028.0F


$$




USA.gov is the U.S. government's official web portal to all federal, state and local government web resources and services.